Location: Alvediston
(51.0078°N, 2.0364°W)
Time: 06:44:32
(UTC+00:00)

Cosmos 1939 Rocket - Pass Details

Date: 27 February 2020
Orbit: 532 x 585 km, 97.4° (Epoch: 09 April)

Event Time Altitude Azimuth Distance (km) Brightness Sun altitude
Rises 19:04:54 0° 181° (S) 2,798 6.4 -13.4°
Reaches altitude 10° 19:07:07 10° 187° (S) 1,905 5.6 -13.7°
Maximum altitude 19:11:06 46° 261° (W) 795 4.1 -14.3°
Drops below altitude 10° 19:15:08 10° 336° (NNW) 1,917 6.0 -15.0°
Sets 19:17:22 0° 342° (NNW) 2,818 6.8 -15.3°
